DW1449 Weather Reports


Display with metric or nautical units.
time (UTC)temp
F
wind
direction
speed
MPH
gust
MPH
rain 1hr
in
rain 24hr
in
rain mn
in
humidity
%
barometer
mb
20260902044555 55 0.0 0.0 0.00 0.07 0.00 97 1015.7
20260902043053 54 0.0 0.0 0.00 0.07 0.00 97 1015.8
20260902041558 54 0.0 0.0 0.00 0.07 0.00 96 1015.7
20260902040057 54 0.0 0.0 0.00 0.07 0.00 96 1015.9
20260902034552 54 0.0 0.0 0.00 0.07 0.00 97 1016.0
20260902033059 54 0.0 0.0 0.00 0.07 0.00 96 1015.7
20260902031611 54 0.0 0.0 0.00 0.07 0.00 96 1015.6
20260902030053 54 0.0 0.0 0.00 0.07 0.00 96 1015.6
20260902024558 54 0.0 0.0 0.00 0.07 0.00 95 1015.6
20260902023053 54 0.0 0.0 0.00 0.07 0.00 95 1015.6
20260902021609 55 0.0 0.0 0.00 0.07 0.00 95 1015.8
20260902020108 55 0.0 0.0 0.00 0.07 0.00 95 1015.7
20260902014549 55 0.0 0.0 0.00 0.07 0.00 95 1015.6
20260902013100 55 0.0 0.0 0.00 0.07 0.00 95 1015.8
20260902011554 56 0.0 0.0 0.00 0.07 0.00 95 1015.5
20260902010100 56 0.0 0.0 0.00 0.07 0.00 96 1015.5
20260902004551 57 0.0 0.0 0.00 0.07 0.00 96 1015.5
20260902003051 57 0.0 0.0 0.00 0.07 0.00 96 1015.5
20260902001557 57 0.0 0.0 0.00 0.07 0.00 96 1015.5
20260902000054 57 0.0 0.0 0.00 0.07 0.00 95 1015.4
20260901234555 56 0.0 0.0 0.00 0.07 0.00 96 1015.5
20260901233059 56 0.0 0.0 0.00 0.07 0.00 95 1015.4
20260901231558 56 0.0 0.0 0.00 0.07 0.00 95 1015.5
20260901230104 56 0.0 0.0 0.00 0.07 0.00 94 1015.4
20260901224552 57 0.0 0.0 0.00 0.07 0.00 94 1015.3
20260901223105 57 0.0 0.0 0.00 0.07 0.00 95 1015.3
20260901221554 57 0.0 0.0 0.00 0.07 0.00 95 1015.4
20260901220118 57 0.0 0.0 0.00 0.07 0.00 95 1015.5
20260901214559 57 0.0 0.0 0.00 0.07 0.07 95 1015.4
20260901213100 57 0.0 0.0 0.01 0.07 0.07 95 1015.4
20260901211553 57 0.0 0.0 0.03 0.07 0.07 95 1015.3
20260901210052 58 0.0 0.0 0.03 0.07 0.07 94 1015.3
20260901204558 58 0.0 0.0 0.03 0.07 0.07 93 1015.2
20260901203056 59 0.0 0.0 0.02 0.05 0.05 93 1015.1
20260901201559 59 0.0 0.0 0.00 0.03 0.03 92 1015.0
20260901200059 60 0.0 0.0 0.00 0.03 0.03 93 1014.9
20260901194604 60 0.0 0.0 0.00 0.03 0.03 91 1014.8
20260901193057 61 0.0 0.0 0.00 0.03 0.03 90 1014.7
20260901191606 61 0.0 0.0 0.00 0.03 0.03 90 1014.7
20260901190051 61 0.0 0.0 0.00 0.03 0.03 89 1014.6
20260901184613 62 0.0 0.0 0.00 0.03 0.03 89 1014.3
20260901183056 62 0.0 0.0 0.00 0.03 0.03 90 1014.1
20260901181600 62 0.0 0.0 0.00 0.03 0.03 89 1014.2
20260901180054 62 0.0 0.0 0.00 0.03 0.03 89 1014.0
20260901174601 62 0.0 0.0 0.00 0.09 0.03 88 1014.0
20260901173050 63 0.0 0.0 0.00 0.09 0.03 86 1013.9
20260901171605 64 0.0 0.0 0.00 0.09 0.03 83 1013.8
20260901170056 64 0.0 0.0 0.00 0.09 0.03 82 1013.7
20260901164554 64 0.0 0.0 0.00 0.09 0.03 81 1013.8
20260901163056 64 0.0 0.0 0.00 0.09 0.03 80 1013.7
20260901161610 65 0.0 0.0 0.00 0.09 0.03 79 1013.6
20260901160114 65 0.0 0.0 0.00 0.09 0.03 80 1013.7
20260901154553 66 0.0 0.0 0.00 0.20 0.03 78 1013.4
20260901153113 66 0.0 0.0 0.00 0.20 0.03 78 1013.4
20260901151603 66 0.0 0.0 0.00 0.20 0.03 79 1013.2
20260901150053 66 0.0 0.0 0.00 0.20 0.03 80 1013.1
20260901144552 66 0.0 0.0 0.00 0.26 0.03 80 1013.3
20260901143126 66 0.0 0.0 0.00 0.26 0.03 79 1013.2
20260901141555 66 0.0 0.0 0.00 0.26 0.03 80 1013.2
20260901140100 65 0.0 0.0 0.00 0.26 0.03 80 1013.3
20260901134556 65 0.0 0.0 0.00 0.26 0.03 81 1013.2
20260901133054 66 0.0 0.0 0.00 0.26 0.03 81 1013.1
20260901131601 66 0.0 0.0 0.00 0.26 0.03 81 1013.3
20260901130058 65 0.0 0.0 0.00 0.26 0.03 82 1013.0
20260901124554 65 0.0 0.0 0.00 0.27 0.03 83 1013.0
20260901123102 66 0.0 0.0 0.00 0.27 0.03 84 1012.9
20260901121551 64 0.0 0.0 0.00 0.27 0.03 87 1012.9
20260901120104 64 0.0 0.0 0.00 0.27 0.03 85 1012.9
20260901114557 63 0.0 0.0 0.00 0.27 0.03 91 1013.0
20260901113059 64 0.0 0.0 0.00 0.27 0.03 86 1013.0
20260901111604 64 0.0 0.0 0.00 0.27 0.03 86 1012.8
20260901110110 64 0.0 0.0 0.00 0.27 0.03 88 1012.7
20260901104555 63 0.0 0.0 0.00 0.27 0.03 86 1012.8
20260901103053 63 0.0 0.0 0.00 0.27 0.03 89 1012.7
20260901101550 62 0.0 0.0 0.00 0.27 0.03 91 1012.4
20260901100056 62 0.0 0.0 0.00 0.27 0.03 91 1012.4
20260901094552 63 0.0 0.0 0.00 0.27 0.03 88 1012.2
20260901093106 63 0.0 0.0 0.00 0.27 0.03 91 1012.0
20260901091555 62 0.0 0.0 0.00 0.27 0.03 90 1011.9
20260901090052 62 0.0 0.0 0.00 0.27 0.03 94 1011.8
20260901084548 61 0.0 0.0 0.00 0.27 0.03 95 1011.7
20260901083059 61 0.0 0.0 0.00 0.27 0.03 97 1011.4
20260901081554 61 0.0 0.0 0.00 0.27 0.03 97 1011.4
20260901080053 60 0.0 0.0 0.00 0.27 0.03 98 1011.3
20260901074559 60 0.0 0.0 0.00 0.27 0.03 98 1011.1
20260901073057 60 0.0 0.0 0.00 0.27 0.03 98 1011.0
20260901071552 60 0.0 0.0 0.00 0.27 0.03 99 1010.9
20260901064554 59 0.0 0.0 0.02 0.27 0.03 99 1010.7
20260901063105 59 0.0 0.0 0.02 0.27 0.03 99 1010.7
20260901061628 59 0.0 0.0 0.02 0.27 0.03 99 1010.5
20260901054553 58 0.0 0.0 0.00 0.25 0.00 99 1010.4
20260901053106 58 0.0 0.0 0.00 0.25 0.00 99 1010.3
20260901051559 58 0.0 0.0 0.00 0.25 0.00 99 1010.4